This is the latest recevied weather packets stored in our database for station/object W7TRD. If no packets are shown the sender has not sent any weather packets the latest 10 day(s).
| Time | Temp. | Humidity | Pressure | Rain* | Wind** | Luminosity | Snow |
|---|---|---|---|---|---|---|---|
| 1777567869 | 17.78° C | 58% | 1019.8 hPa | 0 mm | - | 192 W/m² | - |
| 1777567565 | 18.33° C | 58% | 1020 hPa | 0 mm | - | 246 W/m² | - |
| 1777567262 | 18.89° C | 56% | 1019.9 hPa | 0 mm | - | 528 W/m² | - |
| 1777566961 | 18.33° C | 60% | 1019.9 hPa | 0 mm | - | 587 W/m² | - |
| 1777566658 | 17.22° C | 62% | 1020 hPa | 0 mm | - | 560 W/m² | - |
| 1777566355 | 16.67° C | 61% | 1020 hPa | 0 mm | - | 447 W/m² | - |
| 1777566053 | 17.22° C | 64% | 1020 hPa | 0 mm | - | 423 W/m² | - |
| 1777565748 | 17.22° C | 61% | 1020.2 hPa | 0 mm | - | 380 W/m² | - |
| 1777565445 | 17.22° C | 63% | 1020 hPa | 0 mm | - | 340 W/m² | - |
| 1777565141 | 17.22° C | 63% | 1020.2 hPa | 0 mm | - | 158 W/m² | - |
| 1777564837 | 16.67° C | 66% | 1020 hPa | 0 mm | - | 382 W/m² | - |
| 1777564532 | 16.11° C | 66% | 1020.1 hPa | 0 mm | - | 108 W/m² | - |
| 1777564227 | 15.56° C | 67% | 1020.2 hPa | 0 mm | - | 194 W/m² | - |
| 1777563924 | 15° C | 70% | 1020.3 hPa | 0 mm | - | 331 W/m² | - |
| 1777563620 | 15° C | 70% | 1020.2 hPa | 0 mm | - | 83 W/m² | - |
| 1777563320 | 13.89° C | 73% | 1020.3 hPa | 0 mm | - | 84 W/m² | - |
| 1777563017 | 13.89° C | 74% | 1020.2 hPa | 0 mm | - | 82 W/m² | - |
| 1777562713 | 14.44° C | 73% | 1020.4 hPa | 0 mm | - | 81 W/m² | - |
| 1777562412 | 14.44° C | 74% | 1020.5 hPa | 0 mm | - | 149 W/m² | - |
| 1777562109 | 13.89° C | 74% | 1020.3 hPa | 0 mm | - | 89 W/m² | - |
| 1777561806 | 13.33° C | 75% | 1020.5 hPa | 0 mm | - | 174 W/m² | - |
| 1777561502 | 13.33° C | 77% | 1020.4 hPa | 0 mm | - | 88 W/m² | - |
| 1777561197 | 12.78° C | 78% | 1020.5 hPa | 0 mm | - | 133 W/m² | - |
| 1777560891 | 12.22° C | 79% | 1020.5 hPa | 0 mm | - | 120 W/m² | - |
| 1777560590 | 12.22° C | 81% | 1020.5 hPa | 0 mm | - | 94 W/m² | - |
* Rain latest hour (hover to see other rain measurements)
** Current wind speed in m/s (hover to see current wind gust speed)